This is the latest recevied weather packets stored in our database for station/object KG7DQI-13. If no packets are shown the sender has not sent any weather packets the latest 10 day(s).
| Time | Temp. | Humidity | Pressure | Rain* | Wind** | Luminosity | Snow |
|---|---|---|---|---|---|---|---|
| 1777808038 | 2.78° C | 86% | 913.9 hPa | 0 mm | - | 0 W/m² | - |
| 1777807100 | 2.78° C | 87% | 913.8 hPa | 0 mm | - | 0 W/m² | - |
| 1777806196 | 3.33° C | 85% | 913.9 hPa | 0 mm | - | 0 W/m² | - |
| 1777805319 | 3.89° C | 84% | 913.9 hPa | 0 mm | - | 0 W/m² | - |
| 1777804441 | 4.44° C | 85% | 913.9 hPa | 0 mm | - | 0 W/m² | - |
| 1777803502 | 4.44° C | 82% | 913.9 hPa | 0 mm | - | 0 W/m² | - |
| 1777802588 | 5.56° C | 86% | 914 hPa | 0 mm | - | 0 W/m² | - |
| 1777801645 | 5.56° C | 83% | 914 hPa | 0 mm | - | 0 W/m² | - |
| 1777800774 | 5.56° C | 82% | 914 hPa | 0 mm | - | 0 W/m² | - |
| 1777799907 | 6.11° C | 81% | 914 hPa | 0 mm | - | 0 W/m² | - |
| 1777798997 | 6.11° C | 81% | 913.9 hPa | 0 mm | - | 0 W/m² | - |
| 1777798066 | 6.11° C | 81% | 913.9 hPa | 0 mm | - | 0 W/m² | - |
| 1777797161 | 6.67° C | 78% | 913.8 hPa | 0 mm | - | 0 W/m² | - |
| 1777796216 | 7.22° C | 76% | 913.5 hPa | 0 mm | - | 0 W/m² | - |
| 1777795292 | 7.78° C | 77% | 913.3 hPa | 0 mm | - | 0 W/m² | - |
| 1777794391 | 7.78° C | 76% | 913.6 hPa | 0 mm | - | 0 W/m² | - |
| 1777793473 | 8.33° C | 74% | 913.9 hPa | 0 mm | - | 0 W/m² | - |
| 1777792557 | 9.44° C | 73% | 913.9 hPa | 0 mm | - | 0 W/m² | - |
| 1777791623 | 10.56° C | 70% | 914 hPa | 0 mm | - | 0 W/m² | - |
| 1777790762 | 11.67° C | 67% | 914.1 hPa | 0 mm | - | 0 W/m² | - |
| 1777789831 | 12.78° C | 64% | 913.9 hPa | 0 mm | - | 0 W/m² | - |
| 1777788936 | 13.33° C | 64% | 913.9 hPa | 0 mm | - | 0 W/m² | - |
| 1777788010 | 13.33° C | 64% | 913.7 hPa | 0 mm | - | 0 W/m² | - |
| 1777787139 | 12.78° C | 66% | 913.7 hPa | 0 mm | - | 0 W/m² | - |
| 1777786224 | 12.22° C | 68% | 913.5 hPa | 0 mm | - | 0 W/m² | - |
* Rain latest hour (hover to see other rain measurements)
** Current wind speed in m/s (hover to see current wind gust speed)